• In Uzbekistan
  • List of Countries
  • For 7 days
  • Water Temperature
  • Weather Map
  • Weather Widgets
  • user-avatar
    Login

    Hourly Weather Gold Coast

    Today, 20 November, Wednesday

    Time Temperature Precipitation Wind Pressure Humidity
    00:00 +19°C° 0 mm 2 mps 756 mmHg 96%
    01:00 +19°C° 0 mm 2 mps 756 mmHg 97%
    02:00 +19°C° 0 mm 2 mps 756 mmHg 97%
    03:00 +19°C° 0 mm 3 mps 756 mmHg 97%
    04:00 +19°C° 0 mm 3 mps 755 mmHg 97%
    05:00 +21°C° 0 mm 3 mps 756 mmHg 89%
    06:00 +24°C° 0 mm 3 mps 756 mmHg 80%
    07:00 +26°C° 0 mm 3 mps 756 mmHg 72%
    08:00 +29°C° 0 mm 4 mps 756 mmHg 60%
    09:00 +32°C° 0 mm 4 mps 756 mmHg 48%
    10:00 +35°C° 0 mm 4 mps 756 mmHg 38%
    11:00 +36°C° 0 mm 5 mps 755 mmHg 36%
    12:00 +37°C° 0 mm 5 mps 755 mmHg 35%
    13:00 +38°C° 0 mm 6 mps 754 mmHg 33%
    14:00 +35°C° 0 mm 5 mps 754 mmHg 43%
    15:00 +32°C° 0 mm 5 mps 754 mmHg 53%
    16:00 +29°C° 0 mm 4 mps 754 mmHg 60%
    17:00 +27°C° 0 mm 4 mps 755 mmHg 71%
    18:00 +25°C° 0 mm 3 mps 756 mmHg 83%
    19:00 +22°C° 0 mm 3 mps 757 mmHg 94%
    20:00 +23°C° 0.1 mm 2 mps 757 mmHg 95%
    21:00 +23°C° 0.1 mm 2 mps 758 mmHg 95%
    22:00 +23°C° 0 mm 2 mps 759 mmHg 97%
    23:00 +23°C° 0.1 mm 2 mps 759 mmHg 97%

    Tomorrow, 21 November, Thursday

    Time Temperature Precipitation Wind Pressure Humidity
    00:00 +21°C° 0.1 mm 2 mps 758 mmHg 97%
    01:00 +21°C° 0.1 mm 2 mps 758 mmHg 97%
    02:00 +21°C° 0.1 mm 2 mps 758 mmHg 97%
    03:00 +20°C° 0.1 mm 3 mps 758 mmHg 97%
    04:00 +20°C° 0.1 mm 3 mps 758 mmHg 97%
    05:00 +21°C° 0 mm 3 mps 759 mmHg 92%
    06:00 +22°C° 0 mm 3 mps 759 mmHg 87%
    07:00 +24°C° 0 mm 3 mps 760 mmHg 83%
    08:00 +26°C° 0 mm 3 mps 760 mmHg 70%
    09:00 +28°C° 0 mm 3 mps 760 mmHg 58%
    10:00 +30°C° 0 mm 4 mps 760 mmHg 45%
    11:00 +30°C° 0 mm 4 mps 759 mmHg 44%
    12:00 +30°C° 0 mm 4 mps 759 mmHg 42%
    13:00 +30°C° 0 mm 5 mps 758 mmHg 41%
    14:00 +29°C° 0 mm 5 mps 758 mmHg 45%
    15:00 +28°C° 0 mm 4 mps 758 mmHg 50%
    16:00 +27°C° 0 mm 4 mps 758 mmHg 55%
    17:00 +25°C° 0 mm 4 mps 758 mmHg 65%
    18:00 +22°C° 0 mm 4 mps 758 mmHg 76%
    19:00 +20°C° 0 mm 3 mps 759 mmHg 87%
    20:00 +19°C° 0 mm 3 mps 759 mmHg 89%
    21:00 +19°C° 0 mm 3 mps 760 mmHg 92%
    22:00 +18°C° 0 mm 3 mps 760 mmHg 94%
    23:00 +18°C° 0 mm 3 mps 760 mmHg 94%

    Day after tomorrow, 22 November, Friday

    Time Temperature Precipitation Wind Pressure Humidity
    00:00 +18°C° 0 mm 3 mps 759 mmHg 95%
    01:00 +18°C° 0 mm 3 mps 759 mmHg 95%
    02:00 +17°C° 0 mm 3 mps 759 mmHg 95%
    03:00 +17°C° 0 mm 3 mps 759 mmHg 95%
    04:00 +17°C° 0 mm 3 mps 759 mmHg 95%
    05:00 +19°C° 0 mm 3 mps 759 mmHg 88%
    06:00 +21°C° 0 mm 3 mps 760 mmHg 80%
    07:00 +24°C° 0 mm 3 mps 761 mmHg 73%
    08:00 +26°C° 0 mm 3 mps 760 mmHg 63%
    09:00 +28°C° 0 mm 4 mps 760 mmHg 53%
    10:00 +30°C° 0 mm 4 mps 760 mmHg 43%
    11:00 +30°C° 0 mm 4 mps 759 mmHg 42%
    12:00 +32°C° 0 mm 5 mps 759 mmHg 41%
    13:00 +32°C° 0 mm 6 mps 758 mmHg 40%
    14:00 +30°C° 0 mm 5 mps 758 mmHg 45%
    15:00 +29°C° 0 mm 5 mps 758 mmHg 49%
    16:00 +28°C° 0 mm 5 mps 757 mmHg 53%
    17:00 +26°C° 0 mm 5 mps 758 mmHg 65%
    18:00 +22°C° 0 mm 4 mps 758 mmHg 76%
    19:00 +20°C° 0 mm 4 mps 758 mmHg 87%
    20:00 +20°C° 0 mm 4 mps 759 mmHg 90%
    21:00 +19°C° 0 mm 3 mps 759 mmHg 92%
    22:00 +19°C° 0 mm 3 mps 759 mmHg 94%
    23:00 +18°C° 0 mm 3 mps 759 mmHg 95%

    23 November, Saturday

    Time Temperature Precipitation Wind Pressure Humidity
    00:00 +18°C° 0 mm 3 mps 759 mmHg 95%
    01:00 +18°C° 0 mm 3 mps 759 mmHg 95%
    02:00 +18°C° 0 mm 3 mps 759 mmHg 94%
    03:00 +19°C° 0 mm 3 mps 759 mmHg 92%
    04:00 +19°C° 0 mm 2 mps 759 mmHg 91%
    05:00 +20°C° 0 mm 3 mps 759 mmHg 84%
    06:00 +22°C° 0 mm 3 mps 759 mmHg 77%
    07:00 +24°C° 0 mm 3 mps 759 mmHg 71%
    08:00 +26°C° 0 mm 3 mps 759 mmHg 62%
    09:00 +28°C° 0 mm 4 mps 759 mmHg 53%
    10:00 +30°C° 0 mm 4 mps 759 mmHg 44%
    11:00 +30°C° 0 mm 4 mps 758 mmHg 44%
    12:00 +30°C° 0 mm 5 mps 758 mmHg 44%
    13:00 +30°C° 0 mm 6 mps 757 mmHg 43%
    14:00 +30°C° 0 mm 6 mps 757 mmHg 46%
    15:00 +29°C° 0 mm 6 mps 756 mmHg 49%
    16:00 +28°C° 0 mm 6 mps 756 mmHg 51%
    17:00 +26°C° 0 mm 5 mps 756 mmHg 62%
    18:00 +22°C° 0 mm 4 mps 757 mmHg 74%
    19:00 +20°C° 0 mm 4 mps 757 mmHg 85%
    20:00 +19°C° 0 mm 3 mps 758 mmHg 89%
    21:00 +19°C° 0 mm 3 mps 758 mmHg 92%
    22:00 +18°C° 0 mm 2 mps 759 mmHg 95%
    23:00 +18°C° 0 mm 2 mps 759 mmHg 95%

    24 November, Sunday

    Time Temperature Precipitation Wind Pressure Humidity
    00:00 +18°C° 0 mm 2 mps 758 mmHg 95%
    01:00 +18°C° 0 mm 2 mps 758 mmHg 95%
    02:00 +19°C° 0 mm 2 mps 758 mmHg 94%
    03:00 +19°C° 0 mm 2 mps 758 mmHg 94%
    04:00 +19°C° 0 mm 2 mps 758 mmHg 93%
    05:00 +20°C° 0 mm 2 mps 758 mmHg 86%
    06:00 +22°C° 0 mm 3 mps 759 mmHg 79%
    07:00 +24°C° 0 mm 3 mps 759 mmHg 72%
    08:00 +26°C° 0 mm 3 mps 759 mmHg 62%
    09:00 +27°C° 0 mm 3 mps 759 mmHg 53%
    10:00 +29°C° 0 mm 4 mps 759 mmHg 43%
    11:00 +29°C° 0 mm 4 mps 758 mmHg 42%
    12:00 +30°C° 0 mm 4 mps 758 mmHg 42%
    13:00 +30°C° 0 mm 4 mps 757 mmHg 41%
    14:00 +29°C° 0 mm 5 mps 757 mmHg 46%
    15:00 +28°C° 0 mm 5 mps 756 mmHg 50%
    16:00 +27°C° 0 mm 5 mps 756 mmHg 55%
    17:00 +25°C° 0 mm 4 mps 757 mmHg 66%
    18:00 +21°C° 0 mm 3 mps 757 mmHg 76%
    19:00 +19°C° 0 mm 3 mps 758 mmHg 87%
    20:00 +18°C° 0 mm 2 mps 759 mmHg 90%
    21:00 +18°C° 0 mm 2 mps 759 mmHg 92%
    22:00 +18°C° 0 mm 2 mps 759 mmHg 95%
    23:00 +18°C° 0 mm 2 mps 759 mmHg 93%

    25 November, Monday

    Time Temperature Precipitation Wind Pressure Humidity
    00:00 +19°C° 0 mm 1 mps 759 mmHg 91%
    01:00 +19°C° 0 mm 1 mps 759 mmHg 89%
    02:00 +19°C° 0 mm 1 mps 759 mmHg 90%
    03:00 +18°C° 0 mm 1 mps 758 mmHg 92%
    04:00 +18°C° 0 mm 1 mps 758 mmHg 93%
    05:00 +20°C° 0 mm 1 mps 759 mmHg 82%
    06:00 +22°C° 0 mm 1 mps 759 mmHg 71%
    07:00 +25°C° 0 mm 1 mps 759 mmHg 60%
    08:00 +26°C° 0 mm 1 mps 759 mmHg 53%
    09:00 +28°C° 0 mm 2 mps 759 mmHg 47%
    10:00 +29°C° 0 mm 2 mps 758 mmHg 40%
    11:00 +29°C° 0 mm 3 mps 758 mmHg 40%
    12:00 +30°C° 0 mm 4 mps 757 mmHg 40%
    13:00 +30°C° 0 mm 4 mps 756 mmHg 41%
    14:00 +29°C° 0 mm 4 mps 756 mmHg 45%
    15:00 +28°C° 0 mm 4 mps 755 mmHg 50%
    16:00 +27°C° 0 mm 4 mps 755 mmHg 55%
    17:00 +25°C° 0 mm 3 mps 755 mmHg 65%
    18:00 +22°C° 0 mm 3 mps 756 mmHg 76%
    19:00 +19°C° 0 mm 3 mps 757 mmHg 87%
    20:00 +19°C° 0 mm 3 mps 757 mmHg 89%
    21:00 +19°C° 0 mm 3 mps 757 mmHg 90%
    22:00 +19°C° 0 mm 2 mps 758 mmHg 92%
    23:00 +19°C° 0 mm 2 mps 757 mmHg 90%
    Show more